| time (UTC) | temp F | wind direction | speed MPH | gust MPH | rain 1hr in | rain 24hr in | rain mn in | humidity % | barometer mb |
| 20260905234505 | 89 | 347 | 1.0 | 3.0 | 0.00 | 0.00 | 0.00 | 64 | 1013.6 |
| 20260905234003 | 90 | 343 | 1.0 | 3.0 | 0.00 | 0.00 | 0.00 | 63 | 1013.6 |
| 20260905233504 | 91 | 345 | 2.0 | 3.0 | 0.00 | 0.00 | 0.00 | 62 | 1013.6 |
| 20260905233021 | 91 | 350 | 0.0 | 2.0 | 0.00 | 0.00 | 0.00 | 61 | 1013.5 |
| 20260905232508 | 92 | 345 | 1.0 | 2.0 | 0.00 | 0.00 | 0.00 | 60 | 1013.5 |
| 20260905232008 | 92 | 345 | 1.0 | 2.0 | 0.00 | 0.00 | 0.00 | 60 | 1013.4 |
| 20260905231514 | 92 | 360 | 0.0 | 2.0 | 0.00 | 0.00 | 0.00 | 60 | 1013.5 |
| 20260905231009 | 93 | 360 | 0.0 | 2.0 | 0.00 | 0.00 | 0.00 | 60 | 1013.3 |
| 20260905230507 | 93 | 360 | 1.0 | 2.0 | 0.00 | 0.00 | 0.00 | 59 | 1013.3 |
| 20260905230021 | 93 | 360 | 0.0 | 2.0 | 0.00 | 0.00 | 0.00 | 59 | 1013.2 |
| 20260905225510 | 93 | 360 | 0.0 | 2.0 | 0.00 | 0.00 | 0.00 | 57 | 1013.2 |
| 20260905225012 | 93 | 360 | 0.0 | 2.0 | 0.00 | 0.00 | 0.00 | 56 | 1013.2 |
| 20260905224525 | 93 | 360 | 0.0 | 3.0 | 0.00 | 0.00 | 0.00 | 56 | 1013.3 |
| 20260905224013 | 93 | 360 | 2.0 | 3.0 | 0.00 | 0.00 | 0.00 | 54 | 1013.2 |
| 20260905223518 | 94 | 352 | 1.0 | 3.0 | 0.00 | 0.00 | 0.00 | 54 | 1013.2 |
| 20260905223006 | 94 | 6 | 2.0 | 5.0 | 0.00 | 0.00 | 0.00 | 52 | 1013.3 |
| 20260905222503 | 94 | 1 | 1.0 | 6.0 | 0.00 | 0.00 | 0.00 | 52 | 1013.2 |
| 20260905222006 | 94 | 325 | 4.0 | 6.0 | 0.00 | 0.00 | 0.00 | 50 | 1013.3 |
| 20260905221507 | 94 | 334 | 3.0 | 6.0 | 0.00 | 0.00 | 0.00 | 54 | 1013.3 |
| 20260905221007 | 94 | 326 | 3.0 | 6.0 | 0.00 | 0.00 | 0.00 | 51 | 1013.2 |
| 20260905220510 | 94 | 330 | 2.0 | 8.0 | 0.00 | 0.00 | 0.00 | 52 | 1013.2 |
| 20260905220015 | 94 | 297 | 3.0 | 8.0 | 0.00 | 0.00 | 0.00 | 51 | 1013.2 |
| 20260905215508 | 94 | 307 | 5.0 | 7.0 | 0.00 | 0.00 | 0.00 | 51 | 1013.2 |
| 20260905215014 | 94 | 296 | 4.0 | 9.0 | 0.00 | 0.00 | 0.00 | 53 | 1013.3 |
| 20260905214520 | 94 | 341 | 6.0 | 9.0 | 0.00 | 0.00 | 0.00 | 51 | 1013.3 |
| 20260905214013 | 94 | 295 | 5.0 | 10.0 | 0.00 | 0.00 | 0.00 | 50 | 1013.3 |
| 20260905213512 | 95 | 314 | 5.0 | 10.0 | 0.00 | 0.00 | 0.00 | 50 | 1013.3 |
| 20260905213025 | 95 | 321 | 6.0 | 9.0 | 0.00 | 0.00 | 0.00 | 50 | 1013.3 |
| 20260905212519 | 95 | 338 | 4.0 | 9.0 | 0.00 | 0.00 | 0.00 | 50 | 1013.2 |
| 20260905212017 | 95 | 15 | 2.0 | 7.0 | 0.00 | 0.00 | 0.00 | 50 | 1013.2 |
| 20260905211507 | 95 | 273 | 3.0 | 7.0 | 0.00 | 0.00 | 0.00 | 50 | 1013.3 |
| 20260905211005 | 96 | 300 | 4.0 | 7.0 | 0.00 | 0.00 | 0.00 | 50 | 1013.4 |
| 20260905210506 | 96 | 352 | 3.0 | 11.0 | 0.00 | 0.00 | 0.00 | 49 | 1013.4 |
| 20260905210010 | 96 | 273 | 5.0 | 11.0 | 0.00 | 0.00 | 0.00 | 48 | 1013.4 |
| 20260905205507 | 96 | 274 | 5.0 | 9.0 | 0.00 | 0.00 | 0.00 | 49 | 1013.4 |
| 20260905205008 | 96 | 231 | 6.0 | 8.0 | 0.00 | 0.00 | 0.00 | 50 | 1013.5 |
| 20260905204517 | 95 | 307 | 4.0 | 9.0 | 0.00 | 0.00 | 0.00 | 50 | 1013.5 |
| 20260905204013 | 95 | 328 | 4.0 | 13.0 | 0.00 | 0.00 | 0.00 | 50 | 1013.5 |
| 20260905203514 | 95 | 304 | 9.0 | 13.0 | 0.00 | 0.00 | 0.00 | 51 | 1013.5 |
| 20260905203025 | 95 | 253 | 6.0 | 10.0 | 0.00 | 0.00 | 0.00 | 50 | 1013.5 |
| 20260905202514 | 95 | 326 | 2.0 | 5.0 | 0.00 | 0.00 | 0.00 | 51 | 1013.6 |
| 20260905202017 | 95 | 359 | 2.0 | 9.0 | 0.00 | 0.00 | 0.00 | 51 | 1013.7 |
| 20260905201530 | 95 | 294 | 2.0 | 9.0 | 0.00 | 0.00 | 0.00 | 52 | 1013.8 |
| 20260905201014 | 96 | 293 | 5.0 | 9.0 | 0.00 | 0.00 | 0.00 | 51 | 1013.9 |
| 20260905200520 | 96 | 231 | 3.0 | 8.0 | 0.00 | 0.00 | 0.00 | 50 | 1014.0 |
| 20260905200006 | 96 | 255 | 3.0 | 7.0 | 0.00 | 0.00 | 0.00 | 51 | 1014.2 |
| 20260905195508 | 95 | 227 | 3.0 | 9.0 | 0.00 | 0.00 | 0.00 | 51 | 1014.3 |
| 20260905195006 | 95 | 148 | 4.0 | 9.0 | 0.00 | 0.00 | 0.00 | 52 | 1014.3 |
| 20260905194513 | 94 | 255 | 3.0 | 8.0 | 0.00 | 0.00 | 0.00 | 52 | 1014.3 |
| 20260905194010 | 94 | 245 | 3.0 | 9.0 | 0.00 | 0.00 | 0.00 | 52 | 1014.5 |
| 20260905193510 | 94 | 248 | 6.0 | 9.0 | 0.00 | 0.00 | 0.00 | 52 | 1014.5 |
| 20260905193020 | 94 | 263 | 4.0 | 8.0 | 0.00 | 0.00 | 0.00 | 54 | 1014.6 |
| 20260905192512 | 94 | 302 | 3.0 | 10.0 | 0.00 | 0.00 | 0.00 | 53 | 1014.7 |
| 20260905192013 | 94 | 285 | 7.0 | 10.0 | 0.00 | 0.00 | 0.00 | 52 | 1014.8 |
| 20260905191526 | 94 | 255 | 4.0 | 9.0 | 0.00 | 0.00 | 0.00 | 53 | 1014.7 |
| 20260905191018 | 94 | 241 | 5.0 | 7.0 | 0.00 | 0.00 | 0.00 | 53 | 1014.8 |
| 20260905190515 | 94 | 288 | 2.0 | 5.0 | 0.00 | 0.00 | 0.00 | 54 | 1014.8 |
| 20260905190029 | 94 | 86 | 2.0 | 5.0 | 0.00 | 0.00 | 0.00 | 52 | 1014.9 |
| 20260905185515 | 93 | 250 | 3.0 | 8.0 | 0.00 | 0.00 | 0.00 | 54 | 1014.9 |
| 20260905185006 | 93 | 309 | 1.0 | 8.0 | 0.00 | 0.00 | 0.00 | 55 | 1015.0 |
| 20260905184519 | 93 | 301 | 3.0 | 7.0 | 0.00 | 0.00 | 0.00 | 54 | 1015.0 |
| 20260905184006 | 93 | 332 | 4.0 | 9.0 | 0.00 | 0.00 | 0.00 | 55 | 1015.0 |
| 20260905183509 | 93 | 295 | 4.0 | 9.0 | 0.00 | 0.00 | 0.00 | 55 | 1015.1 |
| 20260905183016 | 93 | 317 | 6.0 | 9.0 | 0.00 | 0.00 | 0.00 | 54 | 1015.3 |
| 20260905182510 | 92 | 211 | 5.0 | 6.0 | 0.00 | 0.00 | 0.00 | 55 | 1015.4 |
| 20260905182012 | 92 | 328 | 3.0 | 6.0 | 0.00 | 0.00 | 0.00 | 54 | 1015.5 |
| 20260905181524 | 92 | 349 | 4.0 | 8.0 | 0.00 | 0.00 | 0.00 | 55 | 1015.6 |
| 20260905181013 | 92 | 334 | 4.0 | 8.0 | 0.00 | 0.00 | 0.00 | 54 | 1015.7 |
| 20260905180514 | 92 | 321 | 3.0 | 5.0 | 0.00 | 0.00 | 0.00 | 54 | 1015.7 |
| 20260905180037 | 91 | 274 | 1.0 | 5.0 | 0.00 | 0.00 | 0.00 | 57 | 1015.7 |
| 20260905175521 | 91 | 283 | 2.0 | 4.0 | 0.00 | 0.00 | 0.00 | 57 | 1015.8 |
| 20260905175015 | 90 | 312 | 1.0 | 5.0 | 0.00 | 0.00 | 0.00 | 57 | 1015.9 |
| 20260905174531 | 90 | 117 | 2.0 | 5.0 | 0.00 | 0.00 | 0.00 | 56 | 1016.0 |
| 20260905174018 | 90 | 37 | 2.0 | 4.0 | 0.00 | 0.00 | 0.00 | 57 | 1015.9 |
| 20260905173509 | 90 | 99 | 2.0 | 4.0 | 0.00 | 0.00 | 0.00 | 57 | 1016.0 |
| 20260905173017 | 90 | 300 | 1.0 | 5.0 | 0.00 | 0.00 | 0.00 | 58 | 1016.1 |
| 20260905172507 | 90 | 292 | 3.0 | 8.0 | 0.00 | 0.00 | 0.00 | 58 | 1016.1 |
| 20260905172011 | 90 | 359 | 2.0 | 10.0 | 0.00 | 0.00 | 0.00 | 58 | 1016.2 |
| 20260905171507 | 90 | 359 | 6.0 | 10.0 | 0.00 | 0.00 | 0.00 | 58 | 1016.2 |
| 20260905171007 | 90 | 293 | 2.0 | 7.0 | 0.00 | 0.00 | 0.00 | 59 | 1016.2 |
| 20260905170506 | 89 | 56 | 1.0 | 4.0 | 0.00 | 0.00 | 0.00 | 57 | 1016.3 |
| 20260905170009 | 89 | 252 | 1.0 | 5.0 | 0.00 | 0.00 | 0.00 | 60 | 1016.3 |
| 20260905165508 | 89 | 48 | 2.0 | 5.0 | 0.00 | 0.00 | 0.00 | 59 | 1016.3 |
| 20260905165010 | 88 | 103 | 1.0 | 4.0 | 0.00 | 0.00 | 0.00 | 61 | 1016.3 |
| 20260905164505 | 88 | 287 | 2.0 | 4.0 | 0.00 | 0.00 | 0.00 | 60 | 1016.3 |
| 20260905164004 | 88 | 27 | 3.0 | 4.0 | 0.00 | 0.00 | 0.00 | 60 | 1016.4 |
| 20260905163509 | 88 | 302 | 2.0 | 5.0 | 0.00 | 0.00 | 0.00 | 60 | 1016.3 |
| 20260905163010 | 88 | 319 | 2.0 | 5.0 | 0.00 | 0.00 | 0.00 | 60 | 1016.3 |
| 20260905162507 | 87 | 23 | 2.0 | 4.0 | 0.00 | 0.00 | 0.00 | 61 | 1016.3 |
| 20260905162006 | 87 | 354 | 2.0 | 6.0 | 0.00 | 0.00 | 0.00 | 62 | 1016.2 |
| 20260905161509 | 86 | 306 | 2.0 | 6.0 | 0.00 | 0.00 | 0.00 | 61 | 1016.3 |
| 20260905161007 | 86 | 358 | 3.0 | 6.0 | 0.00 | 0.00 | 0.00 | 62 | 1016.3 |
| 20260905160506 | 86 | 14 | 2.0 | 6.0 | 0.00 | 0.00 | 0.00 | 61 | 1016.4 |
| 20260905160010 | 86 | 58 | 3.0 | 7.0 | 0.00 | 0.00 | 0.00 | 61 | 1016.5 |
| 20260905155510 | 86 | 40 | 2.0 | 7.0 | 0.00 | 0.00 | 0.00 | 64 | 1016.5 |
| 20260905155010 | 85 | 21 | 3.0 | 6.0 | 0.00 | 0.00 | 0.00 | 63 | 1016.6 |
| 20260905154511 | 85 | 51 | 2.0 | 9.0 | 0.00 | 0.00 | 0.00 | 65 | 1016.7 |
| 20260905154007 | 84 | 39 | 4.0 | 9.0 | 0.00 | 0.00 | 0.00 | 64 | 1016.7 |
| 20260905153503 | 85 | 94 | 2.0 | 7.0 | 0.00 | 0.00 | 0.00 | 63 | 1016.8 |
| 20260905153011 | 85 | 5 | 2.0 | 5.0 | 0.00 | 0.00 | 0.00 | 64 | 1016.8 |
| 20260905152507 | 84 | 1 | 1.0 | 7.0 | 0.00 | 0.00 | 0.00 | 66 | 1016.9 |
| 20260905152008 | 84 | 18 | 3.0 | 10.0 | 0.00 | 0.00 | 0.00 | 65 | 1017.0 |
| 20260905151515 | 84 | 314 | 4.0 | 10.0 | 0.00 | 0.00 | 0.00 | 64 | 1017.1 |
| 20260905151014 | 84 | 49 | 3.0 | 8.0 | 0.00 | 0.00 | 0.00 | 65 | 1017.1 |
| 20260905150511 | 84 | 22 | 4.0 | 8.0 | 0.00 | 0.00 | 0.00 | 66 | 1017.0 |
| 20260905150020 | 83 | 359 | 3.0 | 9.0 | 0.00 | 0.00 | 0.00 | 65 | 1017.0 |
| 20260905145511 | 83 | 21 | 4.0 | 10.0 | 0.00 | 0.00 | 0.00 | 67 | 1017.0 |
| 20260905145009 | 83 | 16 | 3.0 | 13.0 | 0.00 | 0.00 | 0.00 | 69 | 1017.0 |
| 20260905144516 | 82 | 311 | 4.0 | 13.0 | 0.00 | 0.00 | 0.00 | 70 | 1017.0 |
| 20260905144009 | 82 | 323 | 6.0 | 14.0 | 0.00 | 0.00 | 0.00 | 69 | 1017.0 |
| 20260905143511 | 82 | 296 | 7.0 | 14.0 | 0.00 | 0.00 | 0.00 | 70 | 1017.1 |
| 20260905143024 | 82 | 359 | 7.0 | 15.0 | 0.00 | 0.00 | 0.00 | 73 | 1017.2 |
| 20260905142511 | 81 | 13 | 7.0 | 15.0 | 0.00 | 0.00 | 0.00 | 73 | 1017.3 |
| 20260905142007 | 81 | 327 | 6.0 | 14.0 | 0.00 | 0.00 | 0.00 | 74 | 1017.2 |
| 20260905141512 | 82 | 342 | 7.0 | 13.0 | 0.00 | 0.00 | 0.00 | 75 | 1017.0 |
| 20260905141009 | 82 | 349 | 5.0 | 13.0 | 0.00 | 0.00 | 0.00 | 75 | 1017.0 |
| 20260905140510 | 82 | 333 | 4.0 | 13.0 | 0.00 | 0.00 | 0.00 | 74 | 1017.0 |
| 20260905140016 | 82 | 351 | 6.0 | 13.0 | 0.00 | 0.00 | 0.00 | 75 | 1016.8 |
| 20260905135512 | 82 | 8 | 7.0 | 10.0 | 0.00 | 0.00 | 0.00 | 77 | 1017.0 |
| 20260905135013 | 82 | 321 | 6.0 | 8.0 | 0.00 | 0.00 | 0.00 | 79 | 1017.0 |
| 20260905134527 | 81 | 332 | 4.0 | 6.0 | 0.00 | 0.00 | 0.00 | 81 | 1016.7 |
| 20260905134011 | 80 | 37 | 2.0 | 6.0 | 0.00 | 0.00 | 0.00 | 84 | 1016.6 |
| 20260905133510 | 80 | 4 | 3.0 | 6.0 | 0.00 | 0.00 | 0.00 | 86 | 1016.6 |
| 20260905133014 | 79 | 321 | 2.0 | 6.0 | 0.00 | 0.00 | 0.00 | 88 | 1016.6 |
| 20260905132512 | 78 | 349 | 3.0 | 6.0 | 0.00 | 0.00 | 0.00 | 90 | 1016.7 |
| 20260905132014 | 78 | 359 | 3.0 | 4.0 | 0.00 | 0.00 | 0.00 | 92 | 1016.7 |
| 20260905131518 | 78 | 5 | 0.0 | 2.0 | 0.00 | 0.00 | 0.00 | 95 | 1016.8 |
| 20260905131012 | 77 | 1 | 1.0 | 2.0 | 0.00 | 0.00 | 0.00 | 95 | 1016.8 |
| 20260905130507 | 76 | 354 | 0.0 | 2.0 | 0.00 | 0.00 | 0.00 | 96 | 1016.7 |
| 20260905130017 | 76 | 354 | 0.0 | 2.0 | 0.00 | 0.00 | 0.00 | 96 | 1016.7 |
| 20260905125509 | 75 | 354 | 0.0 | 2.0 | 0.00 | 0.00 | 0.00 | 96 | 1016.8 |
| 20260905125012 | 75 | 354 | 0.0 | 3.0 | 0.00 | 0.00 | 0.00 | 96 | 1016.8 |
| 20260905124522 | 74 | 354 | 0.0 | 3.0 | 0.00 | 0.00 | 0.00 | 96 | 1016.8 |
| 20260905124013 | 74 | 354 | 2.0 | 3.0 | 0.00 | 0.00 | 0.00 | 96 | 1016.9 |
| 20260905123516 | 73 | 359 | 0.0 | 0.0 | 0.00 | 0.00 | 0.00 | 96 | 1016.5 |
| 20260905123050 | 73 | 359 | 0.0 | 0.0 | 0.00 | 0.00 | 0.00 | 96 | 1016.5 |
| 20260905122511 | 73 | 359 | 0.0 | 0.0 | 0.00 | 0.00 | 0.00 | 96 | 1016.5 |
| 20260905122014 | 72 | 359 | 0.0 | 0.0 | 0.00 | 0.00 | 0.00 | 96 | 1016.5 |
| 20260905121519 | 72 | 359 | 0.0 | 0.0 | 0.00 | 0.00 | 0.00 | 96 | 1016.4 |
| 20260905121012 | 72 | 359 | 0.0 | 0.0 | 0.00 | 0.00 | 0.00 | 96 | 1016.4 |
| 20260905120511 | 72 | 359 | 0.0 | 0.0 | 0.00 | 0.00 | 0.00 | 96 | 1016.3 |
| 20260905120027 | 72 | 359 | 0.0 | 0.0 | 0.00 | 0.00 | 0.00 | 95 | 1016.3 |
| 20260905115511 | 72 | 359 | 0.0 | 0.0 | 0.00 | 0.00 | 0.00 | 95 | 1016.3 |
| 20260905115008 | 72 | 359 | 0.0 | 1.0 | 0.00 | 0.00 | 0.00 | 95 | 1016.2 |
| 20260905114521 | 72 | 359 | 0.0 | 2.0 | 0.00 | 0.00 | 0.00 | 95 | 1016.2 |
| 20260905114011 | 72 | 359 | 0.0 | 2.0 | 0.00 | 0.00 | 0.00 | 95 | 1016.2 |
| 20260905113512 | 72 | 359 | 0.0 | 0.0 | 0.00 | 0.00 | 0.00 | 95 | 1016.2 |
| 20260905113027 | 72 | 359 | 0.0 | 0.0 | 0.00 | 0.00 | 0.00 | 95 | 1016.1 |
| 20260905112514 | 72 | 359 | 0.0 | 0.0 | 0.00 | 0.00 | 0.00 | 95 | 1016.1 |
| 20260905112011 | 72 | 359 | 0.0 | 2.0 | 0.00 | 0.00 | 0.00 | 95 | 1016.0 |
| 20260905111504 | 72 | 359 | 0.0 | 2.0 | 0.00 | 0.00 | 0.00 | 95 | 1016.0 |
| 20260905111004 | 72 | 359 | 0.0 | 0.0 | 0.00 | 0.00 | 0.00 | 95 | 1015.8 |
| 20260905110506 | 72 | 359 | 0.0 | 2.0 | 0.00 | 0.00 | 0.00 | 95 | 1015.8 |
| 20260905110009 | 72 | 359 | 0.0 | 2.0 | 0.00 | 0.00 | 0.00 | 95 | 1015.7 |
| 20260905105509 | 72 | 359 | 0.0 | 2.0 | 0.00 | 0.00 | 0.00 | 95 | 1015.7 |
| 20260905105007 | 72 | 359 | 0.0 | 2.0 | 0.00 | 0.00 | 0.00 | 95 | 1015.7 |
| 20260905104511 | 72 | 359 | 0.0 | 2.0 | 0.00 | 0.00 | 0.00 | 95 | 1015.5 |
| 20260905104010 | 72 | 359 | 0.0 | 2.0 | 0.00 | 0.00 | 0.00 | 95 | 1015.4 |
| 20260905103514 | 72 | 359 | 0.0 | 2.0 | 0.00 | 0.00 | 0.00 | 95 | 1015.5 |
| 20260905103023 | 72 | 359 | 0.0 | 2.0 | 0.00 | 0.00 | 0.00 | 94 | 1015.6 |
| 20260905102504 | 72 | 359 | 0.0 | 2.0 | 0.00 | 0.00 | 0.00 | 94 | 1015.4 |
| 20260905102003 | 72 | 359 | 0.0 | 2.0 | 0.00 | 0.00 | 0.00 | 95 | 1015.6 |
| 20260905101504 | 72 | 359 | 0.0 | 0.0 | 0.00 | 0.00 | 0.00 | 95 | 1015.5 |
| 20260905101003 | 72 | 359 | 0.0 | 2.0 | 0.00 | 0.00 | 0.00 | 95 | 1015.4 |
| 20260905100503 | 72 | 359 | 0.0 | 2.0 | 0.00 | 0.00 | 0.00 | 95 | 1015.4 |
| 20260905100008 | 73 | 359 | 0.0 | 0.0 | 0.00 | 0.00 | 0.00 | 95 | 1015.3 |
| 20260905095503 | 73 | 359 | 0.0 | 2.0 | 0.00 | 0.00 | 0.00 | 95 | 1015.3 |
| 20260905095006 | 73 | 359 | 0.0 | 2.0 | 0.00 | 0.00 | 0.00 | 95 | 1015.2 |
| 20260905094511 | 73 | 359 | 0.0 | 1.0 | 0.00 | 0.00 | 0.00 | 95 | 1015.2 |
| 20260905094007 | 73 | 359 | 1.0 | 1.0 | 0.00 | 0.00 | 0.00 | 95 | 1015.1 |
| 20260905093512 | 73 | 359 | 0.0 | 0.0 | 0.00 | 0.00 | 0.00 | 94 | 1015.1 |
| 20260905093015 | 73 | 359 | 0.0 | 0.0 | 0.00 | 0.00 | 0.00 | 94 | 1015.0 |
| 20260905092512 | 73 | 359 | 0.0 | 0.0 | 0.00 | 0.00 | 0.00 | 94 | 1015.0 |
| 20260905092010 | 73 | 359 | 0.0 | 0.0 | 0.00 | 0.00 | 0.00 | 95 | 1015.0 |
| 20260905091523 | 73 | 359 | 0.0 | 2.0 | 0.00 | 0.00 | 0.00 | 94 | 1015.0 |
| 20260905091005 | 73 | 359 | 0.0 | 2.0 | 0.00 | 0.00 | 0.00 | 95 | 1015.0 |
| 20260905090502 | 73 | 359 | 0.0 | 2.0 | 0.00 | 0.00 | 0.00 | 94 | 1015.0 |
| 20260905090004 | 73 | 359 | 0.0 | 1.0 | 0.00 | 0.00 | 0.00 | 94 | 1015.0 |
| 20260905085506 | 73 | 359 | 0.0 | 2.0 | 0.00 | 0.00 | 0.00 | 94 | 1015.0 |
| 20260905085009 | 73 | 359 | 0.0 | 2.0 | 0.00 | 0.00 | 0.00 | 94 | 1015.0 |
| 20260905084507 | 73 | 359 | 0.0 | 2.0 | 0.00 | 0.00 | 0.00 | 94 | 1015.0 |
| 20260905084007 | 73 | 359 | 0.0 | 2.0 | 0.00 | 0.00 | 0.00 | 94 | 1015.0 |
| 20260905083508 | 73 | 359 | 0.0 | 2.0 | 0.00 | 0.00 | 0.00 | 94 | 1015.0 |
| 20260905083016 | 73 | 359 | 0.0 | 0.0 | 0.00 | 0.00 | 0.00 | 94 | 1015.0 |
| 20260905082508 | 73 | 359 | 0.0 | 2.0 | 0.00 | 0.00 | 0.00 | 94 | 1015.0 |
| 20260905082010 | 73 | 359 | 0.0 | 2.0 | 0.00 | 0.00 | 0.00 | 94 | 1015.1 |
| 20260905081520 | 73 | 358 | 0.0 | 0.0 | 0.00 | 0.00 | 0.00 | 94 | 1015.1 |
| 20260905081012 | 73 | 358 | 0.0 | 2.0 | 0.00 | 0.00 | 0.00 | 94 | 1015.1 |
| 20260905080511 | 73 | 358 | 0.0 | 2.0 | 0.00 | 0.00 | 0.00 | 94 | 1015.1 |
| 20260905080036 | 73 | 358 | 1.0 | 2.0 | 0.00 | 0.00 | 0.00 | 94 | 1015.1 |
| 20260905075504 | 74 | 359 | 1.0 | 2.0 | 0.00 | 0.00 | 0.00 | 94 | 1015.1 |
| 20260905075004 | 74 | 359 | 0.0 | 2.0 | 0.00 | 0.00 | 0.00 | 94 | 1015.2 |
| 20260905074506 | 74 | 359 | 0.0 | 2.0 | 0.00 | 0.00 | 0.00 | 94 | 1015.2 |
| 20260905074009 | 74 | 359 | 0.0 | 0.0 | 0.00 | 0.00 | 0.00 | 94 | 1015.2 |
| 20260905073507 | 74 | 359 | 0.0 | 2.0 | 0.00 | 0.00 | 0.00 | 94 | 1015.3 |
| 20260905073020 | 74 | 359 | 0.0 | 2.0 | 0.00 | 0.00 | 0.00 | 94 | 1015.4 |
| 20260905072508 | 74 | 359 | 0.0 | 2.0 | 0.00 | 0.00 | 0.00 | 94 | 1015.4 |
| 20260905072009 | 74 | 359 | 0.0 | 1.0 | 0.00 | 0.00 | 0.00 | 93 | 1015.4 |
| 20260905071520 | 74 | 359 | 0.0 | 0.0 | 0.00 | 0.00 | 0.00 | 93 | 1015.5 |
| 20260905071012 | 74 | 359 | 0.0 | 0.0 | 0.00 | 0.00 | 0.00 | 93 | 1015.4 |
| 20260905070513 | 75 | 359 | 0.0 | 0.0 | 0.00 | 0.00 | 0.00 | 94 | 1015.5 |
| 20260905070031 | 75 | 359 | 0.0 | 2.0 | 0.00 | 0.00 | 0.00 | 94 | 1015.6 |
| 20260905065512 | 75 | 359 | 0.0 | 2.0 | 0.00 | 0.00 | 0.00 | 94 | 1015.7 |
| 20260905065017 | 75 | 359 | 1.0 | 2.0 | 0.00 | 0.00 | 0.00 | 93 | 1015.7 |
| 20260905064529 | 75 | 359 | 0.0 | 2.0 | 0.00 | 0.00 | 0.00 | 93 | 1015.8 |
| 20260905064003 | 75 | 359 | 0.0 | 1.0 | 0.00 | 0.00 | 0.00 | 93 | 1015.8 |
| 20260905063509 | 75 | 359 | 0.0 | 2.0 | 0.00 | 0.00 | 0.00 | 93 | 1015.9 |
| 20260905063011 | 75 | 359 | 0.0 | 2.0 | 0.00 | 0.00 | 0.00 | 93 | 1015.9 |
| 20260905062507 | 75 | 359 | 0.0 | 2.0 | 0.00 | 0.00 | 0.00 | 93 | 1016.0 |
| 20260905062010 | 75 | 359 | 0.0 | 2.0 | 0.00 | 0.00 | 0.00 | 93 | 1016.0 |
| 20260905061520 | 75 | 359 | 0.0 | 0.0 | 0.00 | 0.00 | 0.00 | 93 | 1016.0 |
| 20260905061012 | 75 | 359 | 0.0 | 0.0 | 0.00 | 0.00 | 0.00 | 93 | 1016.1 |
| 20260905060510 | 75 | 359 | 0.0 | 0.0 | 0.00 | 0.00 | 0.00 | 93 | 1016.2 |
| 20260905060039 | 75 | 359 | 0.0 | 1.0 | 0.00 | 0.00 | 0.00 | 93 | 1016.2 |
| 20260905055514 | 75 | 359 | 0.0 | 1.0 | 0.00 | 0.00 | 0.00 | 93 | 1016.2 |
| 20260905055016 | 75 | 359 | 1.0 | 2.0 | 0.00 | 0.00 | 0.00 | 93 | 1016.3 |
| 20260905054536 | 75 | 359 | 0.0 | 2.0 | 0.00 | 0.00 | 0.00 | 92 | 1016.3 |
| 20260905054018 | 75 | 359 | 0.0 | 2.0 | 0.00 | 0.00 | 0.00 | 92 | 1016.3 |
| 20260905053514 | 76 | 359 | 0.0 | 0.0 | 0.00 | 0.00 | 0.00 | 92 | 1016.3 |
| 20260905053030 | 76 | 359 | 0.0 | 0.0 | 0.00 | 0.00 | 0.00 | 92 | 1016.3 |
| 20260905052507 | 76 | 359 | 0.0 | 2.0 | 0.00 | 0.00 | 0.00 | 92 | 1016.3 |
| 20260905052011 | 76 | 359 | 0.0 | 2.0 | 0.00 | 0.00 | 0.00 | 92 | 1016.4 |
| 20260905051514 | 76 | 359 | 0.0 | 2.0 | 0.00 | 0.00 | 0.00 | 92 | 1016.3 |
| 20260905051012 | 76 | 359 | 1.0 | 2.0 | 0.00 | 0.00 | 0.00 | 92 | 1016.4 |
| 20260905050512 | 76 | 359 | 0.0 | 2.0 | 0.00 | 0.00 | 0.00 | 92 | 1016.3 |
| 20260905050021 | 76 | 359 | 0.0 | 1.0 | 0.00 | 0.00 | 0.00 | 91 | 1016.2 |
| 20260905045512 | 76 | 359 | 0.0 | 2.0 | 0.00 | 0.00 | 0.00 | 91 | 1016.2 |
| 20260905045013 | 76 | 359 | 0.0 | 2.0 | 0.00 | 0.00 | 0.00 | 91 | 1016.2 |
| 20260905044535 | 76 | 359 | 0.0 | 1.0 | 0.00 | 0.00 | 0.00 | 91 | 1016.2 |
| 20260905044016 | 77 | 359 | 0.0 | 0.0 | 0.00 | 0.00 | 0.00 | 92 | 1016.2 |
| 20260905043514 | 77 | 359 | 0.0 | 0.0 | 0.00 | 0.00 | 0.00 | 91 | 1016.2 |
| 20260905043031 | 77 | 359 | 0.0 | 2.0 | 0.00 | 0.00 | 0.00 | 91 | 1016.2 |
| 20260905042523 | 77 | 359 | 0.0 | 2.0 | 0.00 | 0.00 | 0.00 | 91 | 1016.3 |
| 20260905042016 | 77 | 359 | 0.0 | 2.0 | 0.00 | 0.00 | 0.00 | 91 | 1016.2 |
| 20260905041511 | 77 | 359 | 0.0 | 2.0 | 0.00 | 0.00 | 0.00 | 91 | 1016.3 |
| 20260905041009 | 77 | 359 | 0.0 | 2.0 | 0.00 | 0.00 | 0.00 | 91 | 1016.3 |
| 20260905040509 | 77 | 359 | 0.0 | 2.0 | 0.00 | 0.00 | 0.00 | 91 | 1016.4 |
| 20260905040019 | 77 | 359 | 0.0 | 1.0 | 0.00 | 0.00 | 0.00 | 91 | 1016.3 |
| 20260905035511 | 77 | 359 | 1.0 | 1.0 | 0.00 | 0.00 | 0.00 | 90 | 1016.4 |
| 20260905035012 | 77 | 359 | 0.0 | 0.0 | 0.00 | 0.00 | 0.00 | 90 | 1016.5 |
| 20260905034519 | 78 | 359 | 0.0 | 1.0 | 0.00 | 0.00 | 0.00 | 90 | 1016.4 |
| 20260905034018 | 78 | 359 | 0.0 | 1.0 | 0.00 | 0.00 | 0.00 | 90 | 1016.5 |
| 20260905033516 | 78 | 359 | 0.0 | 1.0 | 0.00 | 0.00 | 0.00 | 90 | 1016.4 |
| 20260905033028 | 78 | 359 | 1.0 | 2.0 | 0.00 | 0.00 | 0.00 | 88 | 1016.4 |
| 20260905032513 | 78 | 359 | 0.0 | 2.0 | 0.00 | 0.00 | 0.00 | 88 | 1016.4 |
| 20260905032015 | 78 | 359 | 0.0 | 0.0 | 0.00 | 0.00 | 0.00 | 88 | 1016.4 |
| 20260905031537 | 78 | 359 | 0.0 | 2.0 | 0.00 | 0.00 | 0.00 | 88 | 1016.4 |
| 20260905031015 | 78 | 359 | 0.0 | 2.0 | 0.00 | 0.00 | 0.00 | 88 | 1016.4 |
| 20260905030517 | 79 | 359 | 0.0 | 0.0 | 0.00 | 0.00 | 0.00 | 88 | 1016.4 |
| 20260905030016 | 79 | 359 | 0.0 | 0.0 | 0.00 | 0.00 | 0.00 | 87 | 1016.5 |
| 20260905025511 | 79 | 359 | 0.0 | 0.0 | 0.00 | 0.00 | 0.00 | 87 | 1016.5 |
| 20260905025011 | 79 | 359 | 0.0 | 2.0 | 0.00 | 0.00 | 0.00 | 88 | 1016.4 |
| 20260905024519 | 79 | 359 | 0.0 | 2.0 | 0.00 | 0.00 | 0.00 | 88 | 1016.4 |
| 20260905024014 | 79 | 359 | 0.0 | 2.0 | 0.00 | 0.00 | 0.00 | 87 | 1016.4 |
| 20260905023518 | 79 | 359 | 0.0 | 2.0 | 0.00 | 0.00 | 0.00 | 87 | 1016.4 |
| 20260905023026 | 79 | 359 | 1.0 | 2.0 | 0.00 | 0.00 | 0.00 | 86 | 1016.4 |
| 20260905022513 | 80 | 359 | 0.0 | 2.0 | 0.00 | 0.00 | 0.00 | 86 | 1016.3 |
| 20260905022021 | 80 | 359 | 0.0 | 2.0 | 0.00 | 0.00 | 0.00 | 85 | 1016.3 |
| 20260905021542 | 80 | 359 | 0.0 | 1.0 | 0.00 | 0.00 | 0.00 | 85 | 1016.4 |
| 20260905021018 | 80 | 359 | 0.0 | 2.0 | 0.00 | 0.00 | 0.00 | 84 | 1016.3 |
| 20260905020520 | 81 | 359 | 1.0 | 2.0 | 0.00 | 0.00 | 0.00 | 84 | 1016.2 |
| 20260905020035 | 81 | 359 | 0.0 | 2.0 | 0.00 | 0.00 | 0.00 | 84 | 1016.1 |
| 20260905015520 | 81 | 359 | 0.0 | 2.0 | 0.00 | 0.00 | 0.00 | 83 | 1016.1 |
| 20260905015019 | 81 | 359 | 0.0 | 0.0 | 0.00 | 0.00 | 0.00 | 81 | 1016.0 |
| 20260905014516 | 81 | 359 | 0.0 | 2.0 | 0.00 | 0.00 | 0.00 | 81 | 1016.0 |
| 20260905014010 | 81 | 359 | 0.0 | 2.0 | 0.00 | 0.00 | 0.00 | 80 | 1016.0 |
| 20260905013511 | 82 | 359 | 0.0 | 2.0 | 0.00 | 0.00 | 0.00 | 81 | 1015.9 |
| 20260905013023 | 82 | 359 | 0.0 | 2.0 | 0.00 | 0.00 | 0.00 | 80 | 1016.0 |
| 20260905012513 | 82 | 359 | 0.0 | 2.0 | 0.00 | 0.00 | 0.00 | 80 | 1015.9 |
| 20260905012015 | 83 | 359 | 1.0 | 2.0 | 0.00 | 0.00 | 0.00 | 79 | 1015.9 |
| 20260905011505 | 83 | 52 | 0.0 | 2.0 | 0.00 | 0.00 | 0.00 | 79 | 1015.8 |
| 20260905011007 | 83 | 52 | 0.0 | 2.0 | 0.00 | 0.00 | 0.00 | 79 | 1015.7 |
| 20260905010503 | 84 | 52 | 0.0 | 2.0 | 0.00 | 0.00 | 0.00 | 78 | 1015.8 |
| 20260905010009 | 84 | 52 | 0.0 | 2.0 | 0.00 | 0.00 | 0.00 | 78 | 1015.8 |
| 20260905005510 | 84 | 52 | 0.0 | 2.0 | 0.00 | 0.00 | 0.00 | 77 | 1015.8 |
| 20260905005007 | 85 | 52 | 1.0 | 2.0 | 0.00 | 0.00 | 0.00 | 76 | 1015.8 |
| 20260905004513 | 85 | 52 | 0.0 | 2.0 | 0.00 | 0.00 | 0.00 | 75 | 1015.8 |
| 20260905004008 | 86 | 52 | 0.0 | 2.0 | 0.00 | 0.00 | 0.00 | 74 | 1015.9 |
| 20260905003513 | 86 | 52 | 0.0 | 2.0 | 0.00 | 0.00 | 0.00 | 73 | 1015.9 |
| 20260905003036 | 87 | 52 | 0.0 | 5.0 | 0.00 | 0.00 | 0.00 | 73 | 1015.9 |
| 20260905002517 | 87 | 52 | 0.0 | 5.0 | 0.00 | 0.00 | 0.00 | 72 | 1016.0 |
| 20260905002018 | 89 | 33 | 0.0 | 1.0 | 0.00 | 0.00 | 0.00 | 69 | 1016.0 |
| 20260905001503 | 90 | 33 | 0.0 | 0.0 | 0.00 | 0.00 | 0.00 | 68 | 1015.9 |
| 20260905001002 | 90 | 33 | 0.0 | 0.0 | 0.00 | 0.00 | 0.00 | 66 | 1015.9 |
| 20260905000504 | 90 | 33 | 0.0 | 1.0 | 0.00 | 0.00 | 0.00 | 65 | 1015.9 |
| 20260905000007 | 91 | 33 | 0.0 | 1.0 | 0.00 | 0.00 | 0.00 | 64 | 1015.9 |
| 20260904235506 | 91 | 33 | 1.0 | 2.0 | 0.00 | 0.00 | 0.00 | 62 | 1015.9 |
| 20260904235006 | 93 | 33 | 0.0 | 2.0 | 0.00 | 0.00 | 0.00 | 58 | 1016.0 |